Winnemucca, Nevada, United States (89445)
Lat: 40.97N, Lon: 117.73W
Wx Zone: NVZ030
Local Info
Past Weather Observations for Today

NOTE: This archive is for the closest National Weather Service station to Winnemucca. Information may differ from the station used for current weather conditions.

Click here for Long-term Archive

Time Weather Temperature Dewpoint Humidity Pressure Winds Precip Visibility
19:56
Overcast
48°F / 9°C 45°F / 7°C 87% 30.09 in
(1019 mb)
S 9.2 mph
(S 15 kph)
- 10SM
18:56
Partly Cloudy
48°F / 9°C 45°F / 7°C 87% 30.09 in
(1019 mb)
S 5.8 mph
(S 9 kph)
0.03 in
(0.76 mm)
10SM
17:56
Overcast
Light Rain
52°F / 11°C 45°F / 7°C 77% 30.09 in
(1019 mb)
SW 3.5 mph
(SW 6 kph)
0.00 in
(0.00 mm)
10SM
16:56
Overcast
52°F / 11°C 46°F / 8°C 82% 30.06 in
(1018 mb)
SE 11.5 mph
(SE 19 kph)
0.04 in
(1.02 mm)
10SM
16:20
Overcast
Light Rain
52°F / 11°C 46°F / 8°C 82% 30.06 in
(1018 mb)
Calm 0.04 in
(1.02 mm)
5SM
16:04
Overcast
Heavy Rain
52°F / 11°C 43°F / 6°C 72% 30.06 in
(1018 mb)
W 9.2 mph
(W 15 kph)
0.01 in
(0.25 mm)
2 1/2SM
15:56
Overcast
Thunder Storms
52°F / 11°C 45°F / 7°C 77% 30.06 in
(1018 mb)
SW 8.1 mph
(SW 13 kph)
0.04 in
(1.02 mm)
10SM
15:22
Overcast
54°F / 12°C 41°F / 5°C 63% 30.06 in
(1018 mb)
SSW 15 mph
(SSW 24 kph)
- 10SM
14:56
Mostly Cloudy
55°F / 13°C 41°F / 5°C 59% 30.04 in
(1017 mb)
S 17.3 mph
(S 28 kph)
- 10SM
13:56
Overcast
57°F / 14°C 43°F / 6°C 59% 30.04 in
(1017 mb)
SSE 19.6 mph
(SSE 32 kph)
0.00 in
(0.00 mm)
10SM
12:56
Mostly Cloudy
57°F / 14°C 37°F / 3°C 48% 30.06 in
(1018 mb)
SE 24.2 mph
(SE 39 kph)
- 10SM
11:56
Partly Cloudy
63°F / 17°C 37°F / 3°C 39% 30.04 in
(1017 mb)
NNW 11.5 mph
(NNW 19 kph)
- 10SM
10:56
Clear
63°F / 17°C 39°F / 4°C 42% 30.06 in
(1018 mb)
NNW 9.2 mph
(NNW 15 kph)
- 10SM
09:56
Mostly Cloudy
63°F / 17°C 41°F / 5°C 45% 30.06 in
(1018 mb)
NNW 12.7 mph
(NNW 20 kph)
- 10SM
08:56
Partly Cloudy
61°F / 16°C 39°F / 4°C 45% 30.06 in
(1018 mb)
NW 9.2 mph
(NW 15 kph)
- 10SM
07:56
Clear
54°F / 12°C 43°F / 6°C 67% 30.06 in
(1018 mb)
NW 4.6 mph
(NW 7 kph)
- 10SM
06:56
Clear
50°F / 10°C 39°F / 4°C 67% 30.06 in
(1018 mb)
Calm - 10SM
05:56
Partly Cloudy
45°F / 7°C 37°F / 3°C 76% 30.04 in
(1017 mb)
Calm - 10SM
04:56
Clear
39°F / 4°C 36°F / 2°C 87% 30.04 in
(1017 mb)
Calm - 10SM
03:56
Partly Cloudy
37°F / 3°C 36°F / 2°C 93% 30.01 in
(1016 mb)
SSE 3.5 mph
(SSE 6 kph)
- 10SM
02:56
Overcast
36°F / 2°C 34°F / 1°C 93% 30.01 in
(1016 mb)
S 3.5 mph
(S 6 kph)
- 10SM
01:56
Clear
37°F / 3°C 36°F / 2°C 93% 30.01 in
(1016 mb)
ENE 3.5 mph
(ENE 6 kph)
- 10SM
00:56
Clear
39°F / 4°C 36°F / 2°C 87% 30.01 in
(1016 mb)
SSE 3.5 mph
(SSE 6 kph)
- 10SM
Time Weather Temperature Dewpoint Humidity Pressure Winds Precip Visibility


Weather for websites

WeatherForYou.com, LLC is not responsible for any damages or problems caused by this service. Current weather conditions are obtained from the closest station including government and personal stations which may have varying degrees of accuracy. Weather forecasts are derived from the NOAA NDFD. Like all things, this site belongs to Jesus Christ... He just trusts us to maintain it. If you have any questions or comments email webmaster@weatherforyou.com

Copyright © 2016, WeatherForYou.com LLC. All rights reserved.